Flag for U.S.A. Weather past 2 weeks in Lewiston, Idaho, U.S.A.

Now
85 °F

Sunny.


Feels Like: 82 °F
Forecast: 63 / 86 °F
Wind: 6 mph from East

Location: Lewiston-Nez Perce County Airport

Current Time: Aug 28, 2015 at 4:04:47 PM

Latest Report: Aug 28, 2015 at 2:56 PM


Visibility: 7 mi

Pressure: 29.90 "Hg

Humidity: 24%

Dew point: 44 °F

Location of LewistonLocation

Historic Weather in Lewiston — Graph

°F

Lewiston temperature yesterday

Maximum temperature yesterday: 93 °F (at 3:56 PM)
Minimum temperature yesterday: 64 °F (at 7:56 AM)
Average temperature yesterday: 78 °F

Past Weeks' High & Low Weather Summary

 TemperatureHumidityPressure
High101 °F (Aug 13, 4:56 PM)54% (Aug 17, 6:56 AM)30.18 "Hg (Aug 17, 6:56 AM)
Low54 °F (Aug 23, 6:56 AM)11% (Aug 20, 4:56 PM)29.62 "Hg (Aug 20, 6:56 PM)
Average75 °F31%29.92 "Hg
* Reported Aug 13 2:56 PM — Aug 28 2:56 PM, Lewiston, Weather by CustomWeather, © 2015

Note: Actual official high and low records may vary slightly from our data, if they occured in-between our weather recording intervals... More about our weather records

Advertising

Lewiston weather history for previous 24 hours

 ConditionsComfort  
Time TempWeatherWind HumidityBarometerVisibility
2:56 PM
Fri, Aug 28
85 °FSunny.6 mph24%29.90 "Hg7 mi
1:56 PM84 °FSunny.3 mph25%29.93 "Hg5 mi
12:56 PM81 °FSunny.No wind26%29.94 "Hg4 mi
11:56 AM78 °FSunny.No wind30%29.94 "Hg4 mi
10:56 AM74 °FSunny.6 mph35%29.95 "Hg5 mi
9:56 AM74 °FSunny.No wind33%29.94 "Hg5 mi
8:56 AM69 °FSunny.3 mph39%29.93 "Hg6 mi
7:56 AM67 °FSunny.5 mph42%29.91 "Hg6 mi
6:56 AM64 °FClear.No wind45%29.90 "Hg7 mi
5:56 AM66 °FClear.No wind43%29.89 "Hg8 mi
4:56 AM65 °FClear.3 mph44%29.89 "Hg8 mi
3:56 AM68 °FClear.No wind38%29.90 "Hg9 mi
2:56 AM68 °FClear.7 mph36%29.91 "Hg10 mi
1:56 AM69 °FClear.3 mph35%29.91 "Hg10 mi
12:56 AM69 °FClear.6 mph33%29.92 "Hg10 mi
11:56 PM
Thu, Aug 27
73 °FClear.5 mph32%29.92 "Hg10 mi
10:56 PM76 °FClear.No wind30%29.93 "Hg10 mi
9:56 PM76 °FClear.7 mph26%29.94 "Hg10 mi
8:56 PM80 °FClear.6 mph24%29.93 "Hg10 mi
7:56 PM85 °FSunny.3 mph21%29.91 "Hg10 mi
6:56 PM89 °FPassing clouds.3 mph18%29.90 "Hg10 mi
5:56 PM91 °FPassing clouds.8 mph16%29.90 "Hg9 mi
4:56 PM93 °FSunny.6 mph14%29.91 "Hg7 mi
Weather by CustomWeather, © 2015

See weather overviewHow to use our weather pages